Location: Unspecified
(0.0000°N, 0.0000°E)
Time: 03:45:24
(UTC+00:00)

A-11 Canister half - Visible Passes

Search period start: 27 May 2015 00:00
Search period end: 06 June 2015 00:00
Orbit: 1515 x 1684 km, 47.2° (Epoch: 24 May)

Date Brightness Start Highest point End Pass type
(mag) Time Alt. Az. Time Alt. Az. Time Alt. Az.
27 May 9.5 03:07:38 45° SE 03:08:28 46° SE 03:17:24 10° ENE visible
27 May 9.6 05:05:52 14° WSW 05:13:21 38° NW 05:21:40 10° NNE visible
28 May 9.8 02:46:27 41° ESE 02:46:27 41° ESE 02:54:21 10° ENE visible
28 May 9.5 04:44:41 22° WSW 04:50:27 41° NW 04:58:59 10° NNE visible
29 May 10.1 02:25:13 33° E 02:25:13 33° E 02:31:18 10° ENE visible
29 May 9.4 04:23:27 31° W 04:27:33 45° NW 04:36:17 10° NNE visible
30 May 10.5 02:03:57 25° E 02:03:57 25° E 02:08:11 10° ENE visible
30 May 9.3 04:02:10 42° W 04:04:38 50° NW 04:13:32 10° NNE visible
31 May 10.8 01:42:37 18° E 01:42:37 18° E 01:45:04 10° ENE visible
31 May 9.1 03:40:50 53° WNW 03:41:44 54° NW 03:50:48 10° NNE visible
01 Jun 11.1 01:21:14 12° ENE 01:21:14 12° ENE 01:21:54 10° ENE visible
01 Jun 9.1 03:19:27 58° NW 03:19:27 58° NW 03:28:02 10° NNE visible
02 Jun 9.4 02:58:01 53° N 02:58:01 53° N 03:05:15 10° NNE visible
02 Jun 10.8 05:00:08 10° NW 05:01:41 10° NW 05:02:18 10° NW visible
03 Jun 9.7 02:36:31 44° NNE 02:36:31 44° NNE 02:42:27 10° NNE visible
03 Jun 10.7 04:35:08 10° WNW 04:38:39 12° NW 04:41:18 10° NNW visible
04 Jun 10.1 02:14:59 34° NNE 02:14:59 34° NNE 02:19:37 10° NE visible
04 Jun 10.6 04:13:11 13° WNW 04:15:38 13° NW 04:19:24 10° NNW visible
05 Jun 10.5 01:53:22 26° NE 01:53:22 26° NE 01:56:47 10° NE visible
05 Jun 10.5 03:51:34 15° NW 03:52:38 15° NW 03:57:16 10° NNW visible
